Location: Sternwarte ZA, Rosenfeld-Brittheim
(48.2889°N, 8.6789°E)
Time: 06:57:55
(UTC+01:00)

ISS - Pass Details

Date: 09 November 2018
Orbit: 402 x 408 km, 51.6° (Epoch: 16 November)

Event Time Altitude Azimuth Distance (km) Brightness Sun altitude
Exits shadow 05:15:36 51° 36° (NE) 520 -3.2 -21.3°
Drops below altitude 10° 05:18:31 10° 91° (E) 1,464 0.2 -20.8°
Sets 05:20:38 0° 96° (E) 2,324 1.6 -20.5°
